Tracking 30918 objects as of 2-Jul-2025
HD Live streaming from Space Station
objects crossing your sky now

STARLINK-30158

Track STARLINK-30158 now!
10-day predictions
STARLINK-30158 is classified as:


NORAD ID: 57438
Int'l Code: 2023-105J
Perigee: 564.8 km
Apogee: 567.6 km
Inclination: 43.0 °
Period: 95.8 minutes
Semi major axis: 6937 km
RCS: Unknown
Launch date: July 24, 2023
Source: United States (US)
Launch site: AIR FORCE EASTERN TEST RANGE (AFETR)
Your satellite tracking list
Your tracking list is empty




NASA's NSSDC Master Catalog

Two Line Element Set (TLE):
1 57438U 23105J   25182.70635022  .00000862  00000-0  78845-4 0  9993
2 57438  43.0028 185.6406 0001959 303.6360  56.4295 15.02540269107802
Source of the keplerian elements: AFSPC